Flag for Canada Weather past 2 weeks in Happy Valley-Goose Bay, Newfoundland and Labrador, Canada

Now
1 °F

Passing clouds.


Feels Like: -14 °F
Forecast: N/A
Wind: 9 mph from West

Location: Goose

Current Time: Feb 28, 2015 at 7:06:19 PM

Latest Report: Feb 28, 2015 at 6:00 PM


Visibility: 15 mi

Pressure: 30.16 "Hg

Humidity: 42%

Dew point: -17 °F

Location of Happy Valley-Goose BayLocation

Historic Weather in Happy Valley-Goose Bay — Graph

°F

Happy Valley-Goose Bay temperature yesterday

Maximum temperature yesterday: 1 °F (at 4:00 PM)
Minimum temperature yesterday: -15 °F (at 4:00 AM)
Average temperature yesterday: -6 °F

Past Weeks' High & Low Weather Summary

 TemperatureHumidityPressure
High21 °F (Feb 20, 2:00 PM)79% (Feb 20, 12:00 PM)30.25 "Hg (Feb 20, 12:00 PM)
Low-20 °F (Feb 25, 6:00 AM)37% (Feb 28, 12:00 PM)29.04 "Hg (Feb 16, 7:00 PM)
Average-1 °F58%29.80 "Hg
* Reported Feb 13 6:00 PM — Feb 28 6:00 PM, Happy Valley-Goose Bay, Weather by CustomWeather, © 2015

Note: Actual official high and low records may vary slightly from our data, if they occured in-between our weather recording intervals... More about our weather records

Advertising

Happy Valley-Goose Bay weather history for previous 24 hours

 ConditionsComfort  
Time TempWeatherWind HumidityBarometerVisibility
6:00 PM
Sat, Feb 28
1 °FPassing clouds.9 mph42%30.16 "Hg15 mi
5:00 PM3 °FPassing clouds.15 mph38%30.14 "Hg15 mi
4:00 PM3 °FLow level haze.16 mph38%30.14 "Hg15 mi
3:00 PM3 °FLow level haze.22 mph38%30.13 "Hg15 mi
2:00 PM0 °FLow level haze.18 mph41%30.13 "Hg15 mi
1:00 PM-2 °FPassing clouds.17 mph41%30.14 "Hg15 mi
12:00 PM-2 °FSunny.17 mph37%30.15 "Hg15 mi
11:00 AM-8 °FSunny.20 mph48%30.15 "Hg15 mi
10:00 AM-9 °FSunny.22 mph48%30.16 "Hg15 mi
9:00 AM-13 °FSunny.15 mph47%30.16 "Hg15 mi
8:00 AM-17 °FSunny.12 mph51%30.15 "Hg15 mi
7:00 AM-17 °FSunny.16 mph51%30.13 "Hg15 mi
6:00 AM-15 °FClear.15 mph47%30.11 "Hg15 mi
5:00 AM-15 °FClear.13 mph47%30.09 "Hg15 mi
4:00 AM-15 °FClear.8 mph47%30.08 "Hg15 mi
3:00 AM-13 °FClear.13 mph47%30.06 "Hg15 mi
2:00 AM-11 °FClear.16 mph48%30.03 "Hg15 mi
1:00 AM-13 °FPassing clouds.8 mph47%30.03 "Hg15 mi
12:00 AM-11 °FClear.9 mph43%30.01 "Hg15 mi
11:00 PM
Fri, Feb 27
-9 °FPassing clouds.7 mph44%30.01 "Hg15 mi
10:00 PM-8 °FPassing clouds.16 mph44%29.99 "Hg15 mi
9:52 PM-6 °FPassing clouds.21 mph40%29.99 "Hg15 mi
9:00 PM-4 °FSnow flurries. Mostly cloudy.8 mph54%29.96 "Hg5 mi
8:00 PM-4 °FMostly cloudy.14 mph41%29.93 "Hg15 mi
7:00 PM-2 °FPartly cloudy.13 mph41%29.91 "Hg15 mi
Weather by CustomWeather, © 2015

See weather overviewHow to use our weather pages